Content
SEND FEEDBACK

Daily
Averages
Monthly
Summary
Philippines

MANILA, PHILIPPINES


Home > Asia > Philippines
Elevation: 49 feet     Latitude: 14 31N     Longitude: 121 00E

WEATHER
 
SELECT A DAY
Number of Records: 172,573;   Date Range: 7/1/96 - 8/12/14
 
SHARE

PRINT THIS DATA

[ ← Previous Day ]
WEATHER ALMANAC - APRIL 20, 2013
[ Next Day → ]
[ °C ]   °F
Weather ElementAverageHighLow
Temperature88.4 °F96.8 °F (2:00 pm)79 °F (2:00 pm)
Dewpoint74.5 °F78 °F (2:00 am)69.8 °F (10:00 am)
Humidity62.7 %79 % (1:00 am)38 % (11:00 am)
Barometer29.82 in29.90 in (11:00 pm)29.74 in (3:00 pm)
Wind Speed5.1 mph9.2 mph (1:00 pm)
Weather ElementAverage
Visibility6.1 mi
Wind DirectionESE (119.3 °)

Weather ElementTotal
Precipitation---
Cooling Degree Days22.9 (Base 65)
Growing Degree Days37.9 (Base 50)
Averaged from 31 records on April 20, 2013
WEATHER CONDITIONS BREAKOUT
WIND DIRECTION BREAKOUT
WEATHER BY HOUR - APRIL 20, 2013
[ °C ]   °F
Local TimeTemperatureDewpointHumidityBarometerVisibilityWind DirectionWind SpeedGust SpeedPrecipitationEventsConditions
1:00 AM84.2 °F77.0 °F79 %29.83 in6.2 miSSW (200°)4.6 mphScattered Clouds
2:00 AM84.0 °F78.0 °F76 %29.83 in6.0 miSouth (190°)2.2 mphHaze
2:00 AM84.2 °F77.0 °F79 %29.80 in6.2 miVariable3.5 mphPartly Cloudy
3:00 AM84.2 °F77.0 °F79 %29.80 in6.2 miVariable2.3 mphPartly Cloudy
4:00 AM84.2 °F75.2 °F74 %29.80 in6.2 miVariable2.3 mphPartly Cloudy
5:00 AM83.0 °F75.0 °F70 %29.81 in6.0 miCalmHaze
5:00 AM82.4 °F75.2 °F79 %29.80 in6.2 miVariable1.2 mphPartly Cloudy
6:00 AM82.4 °F73.4 °F74 %29.83 in5.6 miVariable1.2 mphPartly Cloudy
7:00 AM86.0 °F73.4 °F66 %29.83 in6.2 miSE (130°)1.2 mphScattered Clouds
8:00 AM87.0 °F74.0 °F58 %29.88 in6.0 miESE (120°)4.5 mphHaze
8:00 AM87.8 °F73.4 °F62 %29.86 in6.2 miESE (120°)3.5 mphPartly Cloudy
9:00 AM89.6 °F73.4 °F59 %29.86 in6.2 miESE (110°)4.6 mphPartly Cloudy
10:00 AM91.4 °F69.8 °F49 %29.86 in6.2 miESE (110°)6.9 mphPartly Cloudy
11:00 AM93.0 °F70.0 °F38 %29.85 in6.0 miSE (130°)4.5 mphPartly Cloudy
11:00 AM93.2 °F69.8 °F46 %29.83 in6.2 miSE (130°)5.8 mphScattered Clouds
12:00 PM93.2 °F69.8 °F46 %29.83 in6.2 miSE (140°)8.1 mphScattered Clouds
1:00 PM95.0 °F71.6 °F47 %29.80 in6.2 miSSE (150°)9.2 mphScattered Clouds
2:00 PM79.0 °F72.0 °F73 %29.79 in6.0 miSE (140°)8.9 mphScattered Clouds
2:00 PM96.8 °F71.6 °F44 %29.77 in6.2 miSE (140°)8.1 mphScattered Clouds
3:00 PM96.8 °F73.4 °F47 %29.74 in6.2 miVariable8.1 mphMostly Cloudy
4:00 PM95.0 °F73.4 °F49 %29.74 in6.2 miESE (120°)6.9 mphMostly Cloudy
5:00 PM91.0 °F77.0 °F56 %29.77 in6.0 miWSW (250°)8.9 mphHaze
5:00 PM91.4 °F77.0 °F63 %29.77 in6.2 miWSW (250°)9.2 mphMostly Cloudy
6:00 PM91.4 °F75.2 °F59 %29.80 in6.2 miSSW (210°)6.9 mphMostly Cloudy
7:00 PM89.6 °F73.4 °F59 %29.80 in6.2 miSW (220°)4.6 mphScattered Clouds
8:00 PM88.0 °F77.0 °F64 %29.84 in6.0 miSSE (160°)6.7 mphHaze
8:00 PM87.8 °F77.0 °F70 %29.83 in6.2 miVariable5.8 mphPartly Cloudy
9:00 PM87.8 °F77.0 °F70 %29.86 in6.2 miSSE (160°)5.8 mphPartly Cloudy
10:00 PM87.8 °F77.0 °F70 %29.89 in6.2 miVariable3.5 mphPartly Cloudy
11:00 PM87.0 °F77.0 °F64 %29.90 in6.0 miSSW (200°)4.5 mphHaze
11:00 PM86.0 °F77.0 °F74 %29.89 in6.2 miSSW (200°)4.6 mphScattered Clouds
Hourly data recorded from RPLL, located miles away from Manila, Philippines







STORIES FROM OUR PARTNERS